| time (UTC) | temp F | wind direction | speed MPH | gust MPH | rain 1hr in | rain 24hr in | rain mn in | humidity % | barometer mb |
| 20260831151829 | 86 | 244 | 6.0 | 8.0 | 0.00 | 0.00 | 0.00 | 21 | 1010.3 |
| 20260831151340 | 86 | 232 | 6.0 | 10.0 | 0.00 | 0.00 | 0.00 | 22 | 1010.3 |
| 20260831150832 | 85 | 223 | 7.0 | 10.0 | 0.00 | 0.00 | 0.00 | 22 | 1010.3 |
| 20260831150321 | 85 | 235 | 6.0 | 8.0 | 0.00 | 0.00 | 0.00 | 23 | 1010.3 |
| 20260831145828 | 85 | 240 | 7.0 | 10.0 | 0.00 | 0.00 | 0.00 | 23 | 1010.3 |
| 20260831145319 | 84 | 241 | 7.0 | 10.0 | 0.00 | 0.00 | 0.00 | 23 | 1010.2 |
| 20260831144852 | 84 | 238 | 7.0 | 10.0 | 0.00 | 0.00 | 0.00 | 23 | 1010.2 |
| 20260831144320 | 84 | 248 | 5.0 | 7.0 | 0.00 | 0.00 | 0.00 | 23 | 1010.2 |
| 20260831143832 | 83 | 246 | 5.0 | 7.0 | 0.00 | 0.00 | 0.00 | 24 | 1010.2 |
| 20260831143323 | 83 | 263 | 4.0 | 6.0 | 0.00 | 0.00 | 0.00 | 24 | 1010.1 |
| 20260831142820 | 83 | 273 | 1.0 | 6.0 | 0.00 | 0.00 | 0.00 | 24 | 1010.0 |
| 20260831142331 | 82 | 270 | 3.0 | 6.0 | 0.00 | 0.00 | 0.00 | 24 | 1009.9 |
| 20260831141822 | 82 | 267 | 3.0 | 4.0 | 0.00 | 0.00 | 0.00 | 25 | 1009.9 |
| 20260831141312 | 81 | 267 | 2.0 | 7.0 | 0.00 | 0.00 | 0.00 | 25 | 1009.8 |
| 20260831140826 | 81 | 267 | 3.0 | 9.0 | 0.00 | 0.00 | 0.00 | 25 | 1009.7 |
| 20260831140315 | 81 | 283 | 6.0 | 11.0 | 0.00 | 0.00 | 0.00 | 25 | 1009.7 |
| 20260831135825 | 81 | 277 | 7.0 | 11.0 | 0.00 | 0.00 | 0.00 | 25 | 1009.6 |
| 20260831135315 | 80 | 285 | 9.0 | 12.0 | 0.00 | 0.00 | 0.00 | 26 | 1009.5 |
| 20260831134828 | 80 | 298 | 10.0 | 12.0 | 0.00 | 0.00 | 0.00 | 27 | 1009.5 |
| 20260831134323 | 79 | 306 | 9.0 | 11.0 | 0.00 | 0.00 | 0.00 | 28 | 1009.4 |
| 20260831133835 | 80 | 290 | 9.0 | 11.0 | 0.00 | 0.00 | 0.00 | 27 | 1009.3 |
| 20260831133325 | 80 | 301 | 9.0 | 12.0 | 0.00 | 0.00 | 0.00 | 27 | 1009.2 |
| 20260831132817 | 81 | 300 | 8.0 | 13.0 | 0.00 | 0.00 | 0.00 | 26 | 1009.1 |
| 20260831132347 | 81 | 270 | 10.0 | 15.0 | 0.00 | 0.00 | 0.00 | 25 | 1009.1 |
| 20260831131819 | 81 | 279 | 11.0 | 15.0 | 0.00 | 0.00 | 0.00 | 26 | 1009.1 |
| 20260831131330 | 79 | 285 | 11.0 | 13.0 | 0.00 | 0.00 | 0.00 | 29 | 1009.1 |
| 20260831130843 | 79 | 279 | 9.0 | 11.0 | 0.00 | 0.00 | 0.00 | 30 | 1009.2 |
| 20260831130332 | 79 | 276 | 8.0 | 11.0 | 0.00 | 0.00 | 0.00 | 30 | 1009.1 |
| 20260831125841 | 80 | 261 | 9.0 | 13.0 | 0.00 | 0.00 | 0.00 | 31 | 1009.0 |
| 20260831125330 | 79 | 272 | 11.0 | 13.0 | 0.00 | 0.00 | 0.00 | 32 | 1009.0 |
| 20260831124825 | 80 | 287 | 9.0 | 12.0 | 0.00 | 0.00 | 0.00 | 31 | 1008.9 |
| 20260831124316 | 80 | 288 | 10.0 | 12.0 | 0.00 | 0.00 | 0.00 | 31 | 1008.9 |
| 20260831123828 | 79 | 262 | 9.0 | 13.0 | 0.00 | 0.00 | 0.00 | 32 | 1008.9 |
| 20260831123319 | 80 | 274 | 10.0 | 13.0 | 0.00 | 0.00 | 0.00 | 32 | 1008.9 |
| 20260831122832 | 80 | 277 | 9.0 | 13.0 | 0.00 | 0.00 | 0.00 | 32 | 1008.9 |
| 20260831122344 | 80 | 277 | 10.0 | 13.0 | 0.00 | 0.00 | 0.00 | 32 | 1008.9 |
| 20260831121815 | 81 | 290 | 10.0 | 14.0 | 0.00 | 0.00 | 0.00 | 31 | 1008.8 |
| 20260831121324 | 81 | 296 | 10.0 | 15.0 | 0.00 | 0.00 | 0.00 | 31 | 1008.8 |
| 20260831120815 | 81 | 302 | 12.0 | 16.0 | 0.00 | 0.00 | 0.00 | 31 | 1008.8 |
| 20260831120330 | 81 | 285 | 10.0 | 16.0 | 0.00 | 0.00 | 0.00 | 32 | 1008.8 |
| 20260831115818 | 81 | 268 | 11.0 | 14.0 | 0.00 | 0.00 | 0.00 | 32 | 1008.8 |
| 20260831115329 | 81 | 298 | 11.0 | 13.0 | 0.00 | 0.00 | 0.00 | 32 | 1008.8 |
| 20260831114840 | 81 | 302 | 11.0 | 14.0 | 0.00 | 0.00 | 0.00 | 32 | 1008.7 |
| 20260831114331 | 80 | 311 | 11.0 | 13.0 | 0.00 | 0.00 | 0.00 | 32 | 1008.7 |
| 20260831113823 | 81 | 305 | 10.0 | 13.0 | 0.00 | 0.00 | 0.00 | 32 | 1008.7 |
| 20260831113314 | 81 | 297 | 9.0 | 11.0 | 0.00 | 0.00 | 0.00 | 32 | 1008.6 |
| 20260831112825 | 81 | 300 | 9.0 | 13.0 | 0.00 | 0.00 | 0.00 | 31 | 1008.6 |
| 20260831112316 | 81 | 297 | 10.0 | 13.0 | 0.00 | 0.00 | 0.00 | 31 | 1008.6 |
| 20260831111828 | 81 | 304 | 9.0 | 11.0 | 0.00 | 0.00 | 0.00 | 32 | 1008.6 |
| 20260831111323 | 81 | 302 | 9.0 | 12.0 | 0.00 | 0.00 | 0.00 | 32 | 1008.6 |
| 20260831110814 | 81 | 285 | 8.0 | 13.0 | 0.00 | 0.00 | 0.00 | 32 | 1008.5 |
| 20260831110325 | 81 | 279 | 11.0 | 13.0 | 0.00 | 0.00 | 0.00 | 32 | 1008.5 |
| 20260831105814 | 82 | 288 | 9.0 | 12.0 | 0.00 | 0.00 | 0.00 | 32 | 1008.5 |
| 20260831105324 | 82 | 298 | 9.0 | 11.0 | 0.00 | 0.00 | 0.00 | 31 | 1008.5 |
| 20260831104816 | 82 | 309 | 8.0 | 14.0 | 0.00 | 0.00 | 0.00 | 30 | 1008.5 |
| 20260831104328 | 83 | 286 | 10.0 | 14.0 | 0.00 | 0.00 | 0.00 | 29 | 1008.5 |
| 20260831103819 | 82 | 299 | 10.0 | 13.0 | 0.00 | 0.00 | 0.00 | 29 | 1008.5 |
| 20260831103314 | 83 | 288 | 8.0 | 11.0 | 0.00 | 0.00 | 0.00 | 29 | 1008.5 |
| 20260831102846 | 83 | 288 | 8.0 | 14.0 | 0.00 | 0.00 | 0.00 | 29 | 1008.5 |
| 20260831102328 | 83 | 281 | 9.0 | 14.0 | 0.00 | 0.00 | 0.00 | 29 | 1008.5 |
| 20260831101820 | 82 | 309 | 9.0 | 11.0 | 0.00 | 0.00 | 0.00 | 30 | 1008.4 |
| 20260831101330 | 82 | 309 | 8.0 | 10.0 | 0.00 | 0.00 | 0.00 | 30 | 1008.4 |
| 20260831100822 | 83 | 311 | 8.0 | 13.0 | 0.00 | 0.00 | 0.00 | 30 | 1008.5 |
| 20260831100313 | 83 | 295 | 10.0 | 13.0 | 0.00 | 0.00 | 0.00 | 30 | 1008.4 |
| 20260831095843 | 83 | 306 | 9.0 | 11.0 | 0.00 | 0.00 | 0.00 | 30 | 1008.4 |
| 20260831095313 | 82 | 309 | 9.0 | 11.0 | 0.00 | 0.00 | 0.00 | 31 | 1008.4 |
| 20260831094826 | 83 | 283 | 8.0 | 11.0 | 0.00 | 0.00 | 0.00 | 31 | 1008.4 |
| 20260831094317 | 83 | 286 | 9.0 | 15.0 | 0.00 | 0.00 | 0.00 | 30 | 1008.4 |
| 20260831093813 | 83 | 309 | 11.0 | 15.0 | 0.00 | 0.00 | 0.00 | 31 | 1008.4 |
| 20260831093324 | 83 | 315 | 11.0 | 14.0 | 0.00 | 0.00 | 0.00 | 31 | 1008.3 |
| 20260831092816 | 83 | 315 | 8.0 | 11.0 | 0.00 | 0.00 | 0.00 | 31 | 1008.4 |
| 20260831092326 | 84 | 294 | 9.0 | 13.0 | 0.00 | 0.00 | 0.00 | 30 | 1008.3 |
| 20260831091820 | 84 | 304 | 11.0 | 14.0 | 0.00 | 0.00 | 0.00 | 29 | 1008.3 |
| 20260831091331 | 85 | 299 | 10.0 | 15.0 | 0.00 | 0.00 | 0.00 | 28 | 1008.3 |
| 20260831090822 | 85 | 291 | 9.0 | 15.0 | 0.00 | 0.00 | 0.00 | 27 | 1008.4 |
| 20260831090312 | 85 | 278 | 11.0 | 17.0 | 0.00 | 0.00 | 0.00 | 27 | 1008.3 |
| 20260831085823 | 85 | 285 | 14.0 | 17.0 | 0.00 | 0.00 | 0.00 | 27 | 1008.3 |
| 20260831085317 | 86 | 282 | 14.0 | 17.0 | 0.00 | 0.00 | 0.00 | 26 | 1008.4 |
| 20260831084830 | 86 | 302 | 12.0 | 15.0 | 0.00 | 0.00 | 0.00 | 26 | 1008.5 |
| 20260831084321 | 86 | 271 | 11.0 | 15.0 | 0.00 | 0.00 | 0.00 | 26 | 1008.6 |
| 20260831083833 | 86 | 274 | 11.0 | 15.0 | 0.00 | 0.00 | 0.00 | 26 | 1008.5 |
| 20260831083324 | 86 | 304 | 10.0 | 18.0 | 0.00 | 0.00 | 0.00 | 26 | 1008.6 |
| 20260831082836 | 87 | 288 | 13.0 | 20.0 | 0.00 | 0.00 | 0.00 | 26 | 1008.6 |
| 20260831082326 | 87 | 268 | 16.0 | 20.0 | 0.00 | 0.00 | 0.00 | 26 | 1008.7 |
| 20260831081838 | 87 | 270 | 12.0 | 16.0 | 0.00 | 0.00 | 0.00 | 26 | 1008.7 |
| 20260831081326 | 87 | 283 | 12.0 | 18.0 | 0.00 | 0.00 | 0.00 | 25 | 1008.7 |
| 20260831080818 | 87 | 288 | 13.0 | 18.0 | 0.00 | 0.00 | 0.00 | 26 | 1008.7 |
| 20260831080332 | 86 | 290 | 12.0 | 18.0 | 0.00 | 0.00 | 0.00 | 26 | 1008.8 |
| 20260831075823 | 86 | 273 | 11.0 | 16.0 | 0.00 | 0.00 | 0.00 | 26 | 1008.8 |
| 20260831075314 | 86 | 281 | 12.0 | 15.0 | 0.00 | 0.00 | 0.00 | 26 | 1008.8 |
| 20260831074826 | 87 | 284 | 12.0 | 17.0 | 0.00 | 0.00 | 0.00 | 26 | 1008.8 |
| 20260831074317 | 87 | 257 | 13.0 | 17.0 | 0.00 | 0.00 | 0.00 | 26 | 1008.8 |
| 20260831073850 | 87 | 281 | 10.0 | 16.0 | 0.00 | 0.00 | 0.00 | 26 | 1008.8 |
| 20260831073320 | 87 | 296 | 13.0 | 18.0 | 0.00 | 0.00 | 0.00 | 26 | 1008.7 |
| 20260831072813 | 87 | 289 | 12.0 | 20.0 | 0.00 | 0.00 | 0.00 | 26 | 1008.7 |
| 20260831072324 | 87 | 270 | 16.0 | 20.0 | 0.00 | 0.00 | 0.00 | 26 | 1008.7 |
| 20260831071821 | 87 | 308 | 13.0 | 21.0 | 0.00 | 0.00 | 0.00 | 26 | 1008.7 |
| 20260831071351 | 87 | 300 | 15.0 | 21.0 | 0.00 | 0.00 | 0.00 | 26 | 1008.7 |
| 20260831070821 | 87 | 301 | 15.0 | 20.0 | 0.00 | 0.00 | 0.00 | 26 | 1008.7 |
| 20260831070313 | 87 | 290 | 12.0 | 16.0 | 0.00 | 0.00 | 0.00 | 26 | 1008.6 |
| 20260831065822 | 87 | 284 | 12.0 | 20.0 | 0.00 | 0.00 | 0.00 | 27 | 1008.6 |
| 20260831065313 | 88 | 294 | 15.0 | 22.0 | 0.00 | 0.00 | 0.00 | 26 | 1008.7 |
| 20260831064846 | 88 | 290 | 17.0 | 21.0 | 0.00 | 0.00 | 0.00 | 26 | 1008.6 |
| 20260831064316 | 88 | 288 | 15.0 | 23.0 | 0.00 | 0.00 | 0.00 | 26 | 1008.6 |
| 20260831063829 | 88 | 285 | 16.0 | 23.0 | 0.00 | 0.00 | 0.00 | 26 | 1008.7 |
| 20260831063318 | 88 | 267 | 16.0 | 22.0 | 0.00 | 0.00 | 0.00 | 26 | 1008.6 |
| 20260831062815 | 88 | 288 | 13.0 | 20.0 | 0.00 | 0.00 | 0.00 | 26 | 1008.6 |
| 20260831062345 | 87 | 298 | 14.0 | 20.0 | 0.00 | 0.00 | 0.00 | 26 | 1008.6 |
| 20260831061816 | 87 | 291 | 13.0 | 20.0 | 0.00 | 0.00 | 0.00 | 26 | 1008.6 |
| 20260831061327 | 88 | 280 | 14.0 | 20.0 | 0.00 | 0.00 | 0.00 | 26 | 1008.6 |
| 20260831060817 | 88 | 274 | 14.0 | 20.0 | 0.00 | 0.00 | 0.00 | 25 | 1008.6 |
| 20260831060327 | 88 | 288 | 15.0 | 28.0 | 0.00 | 0.00 | 0.00 | 26 | 1008.6 |
| 20260831055816 | 88 | 295 | 19.0 | 28.0 | 0.00 | 0.00 | 0.00 | 25 | 1008.6 |
| 20260831055327 | 88 | 309 | 18.0 | 24.0 | 0.00 | 0.00 | 0.00 | 25 | 1008.6 |
| 20260831054817 | 88 | 297 | 16.0 | 22.0 | 0.00 | 0.00 | 0.00 | 25 | 1008.7 |
| 20260831054327 | 88 | 280 | 18.0 | 23.0 | 0.00 | 0.00 | 0.00 | 25 | 1008.6 |
| 20260831053823 | 88 | 298 | 17.0 | 25.0 | 0.00 | 0.00 | 0.00 | 26 | 1008.7 |
| 20260831053314 | 88 | 279 | 19.0 | 25.0 | 0.00 | 0.00 | 0.00 | 25 | 1008.6 |
| 20260831052826 | 88 | 287 | 18.0 | 24.0 | 0.00 | 0.00 | 0.00 | 26 | 1008.6 |
| 20260831052317 | 88 | 302 | 15.0 | 21.0 | 0.00 | 0.00 | 0.00 | 26 | 1008.6 |
| 20260831051829 | 88 | 272 | 15.0 | 23.0 | 0.00 | 0.00 | 0.00 | 26 | 1008.6 |
| 20260831051318 | 88 | 286 | 16.0 | 25.0 | 0.00 | 0.00 | 0.00 | 26 | 1008.6 |
| 20260831050829 | 88 | 293 | 16.0 | 25.0 | 0.00 | 0.00 | 0.00 | 26 | 1008.6 |
| 20260831050318 | 88 | 287 | 18.0 | 21.0 | 0.00 | 0.00 | 0.00 | 26 | 1008.6 |
| 20260831045827 | 88 | 302 | 14.0 | 22.0 | 0.00 | 0.00 | 0.00 | 26 | 1008.6 |
| 20260831045321 | 89 | 296 | 17.0 | 26.0 | 0.00 | 0.00 | 0.00 | 26 | 1008.6 |
| 20260831044834 | 89 | 292 | 20.0 | 29.0 | 0.00 | 0.00 | 0.00 | 26 | 1008.5 |
| 20260831044324 | 89 | 319 | 19.0 | 29.0 | 0.00 | 0.00 | 0.00 | 26 | 1008.6 |
| 20260831043817 | 89 | 290 | 17.0 | 24.0 | 0.00 | 0.00 | 0.00 | 26 | 1008.6 |
| 20260831043329 | 89 | 300 | 17.0 | 23.0 | 0.00 | 0.00 | 0.00 | 26 | 1008.5 |
| 20260831042821 | 89 | 299 | 18.0 | 23.0 | 0.00 | 0.00 | 0.00 | 26 | 1008.4 |
| 20260831042332 | 89 | 293 | 18.0 | 23.0 | 0.00 | 0.00 | 0.00 | 26 | 1008.4 |
| 20260831041844 | 89 | 291 | 16.0 | 23.0 | 0.00 | 0.00 | 0.00 | 26 | 1008.4 |
| 20260831041315 | 89 | 290 | 19.0 | 23.0 | 0.00 | 0.00 | 0.00 | 26 | 1008.4 |
| 20260831040831 | 89 | 280 | 17.0 | 21.0 | 0.00 | 0.00 | 0.00 | 26 | 1008.4 |
| 20260831040322 | 90 | 299 | 16.0 | 24.0 | 0.00 | 0.00 | 0.00 | 27 | 1008.3 |
| 20260831035832 | 90 | 306 | 18.0 | 24.0 | 0.00 | 0.00 | 0.00 | 27 | 1008.2 |
| 20260831035323 | 90 | 290 | 21.0 | 25.0 | 0.00 | 0.00 | 0.00 | 27 | 1008.1 |
| 20260831034815 | 90 | 298 | 19.0 | 25.0 | 0.00 | 0.00 | 0.00 | 28 | 1008.0 |
| 20260831034345 | 90 | 305 | 16.0 | 23.0 | 0.00 | 0.00 | 0.00 | 28 | 1008.0 |
| 20260831033816 | 90 | 289 | 17.0 | 28.0 | 0.00 | 0.00 | 0.00 | 29 | 1007.9 |
| 20260831033346 | 90 | 300 | 20.0 | 29.0 | 0.00 | 0.00 | 0.00 | 29 | 1007.8 |
| 20260831032816 | 91 | 301 | 19.0 | 25.0 | 0.00 | 0.00 | 0.00 | 29 | 1007.8 |
| 20260831032325 | 91 | 290 | 18.0 | 26.0 | 0.00 | 0.00 | 0.00 | 29 | 1007.8 |
| 20260831031820 | 91 | 300 | 18.0 | 25.0 | 0.00 | 0.00 | 0.00 | 29 | 1007.7 |
| 20260831031331 | 91 | 271 | 17.0 | 23.0 | 0.00 | 0.00 | 0.00 | 29 | 1007.7 |
| 20260831030823 | 91 | 317 | 16.0 | 24.0 | 0.00 | 0.00 | 0.00 | 29 | 1007.7 |
| 20260831030313 | 92 | 313 | 18.0 | 24.0 | 0.00 | 0.00 | 0.00 | 28 | 1007.6 |
| 20260831025824 | 92 | 298 | 17.0 | 25.0 | 0.00 | 0.00 | 0.00 | 28 | 1007.6 |
| 20260831025314 | 92 | 286 | 17.0 | 25.0 | 0.00 | 0.00 | 0.00 | 28 | 1007.5 |
| 20260831024825 | 92 | 302 | 17.0 | 24.0 | 0.00 | 0.00 | 0.00 | 27 | 1007.5 |
| 20260831024316 | 93 | 300 | 18.0 | 24.0 | 0.00 | 0.00 | 0.00 | 27 | 1007.5 |
| 20260831023829 | 93 | 305 | 18.0 | 24.0 | 0.00 | 0.00 | 0.00 | 27 | 1007.4 |
| 20260831023319 | 93 | 292 | 14.0 | 23.0 | 0.00 | 0.00 | 0.00 | 26 | 1007.3 |
| 20260831022850 | 93 | 306 | 17.0 | 27.0 | 0.00 | 0.00 | 0.00 | 26 | 1007.2 |
| 20260831022323 | 93 | 289 | 20.0 | 28.0 | 0.00 | 0.00 | 0.00 | 27 | 1007.1 |
| 20260831021815 | 94 | 301 | 21.0 | 28.0 | 0.00 | 0.00 | 0.00 | 27 | 1007.0 |
| 20260831021326 | 94 | 292 | 20.0 | 27.0 | 0.00 | 0.00 | 0.00 | 27 | 1007.0 |
| 20260831020819 | 94 | 294 | 19.0 | 26.0 | 0.00 | 0.00 | 0.00 | 28 | 1006.8 |
| 20260831020330 | 94 | 290 | 19.0 | 26.0 | 0.00 | 0.00 | 0.00 | 28 | 1006.7 |
| 20260831015820 | 95 | 299 | 21.0 | 26.0 | 0.00 | 0.00 | 0.00 | 28 | 1006.7 |
| 20260831015331 | 95 | 294 | 17.0 | 26.0 | 0.00 | 0.00 | 0.00 | 27 | 1006.6 |
| 20260831014823 | 96 | 299 | 15.0 | 28.0 | 0.00 | 0.00 | 0.00 | 27 | 1006.6 |
| 20260831014316 | 96 | 269 | 22.0 | 29.0 | 0.00 | 0.00 | 0.00 | 27 | 1006.6 |
| 20260831013828 | 96 | 276 | 21.0 | 29.0 | 0.00 | 0.00 | 0.00 | 26 | 1006.5 |
| 20260831013319 | 97 | 288 | 18.0 | 29.0 | 0.00 | 0.00 | 0.00 | 26 | 1006.5 |
| 20260831012832 | 97 | 267 | 20.0 | 29.0 | 0.00 | 0.00 | 0.00 | 25 | 1006.5 |
| 20260831012320 | 98 | 270 | 17.0 | 29.0 | 0.00 | 0.00 | 0.00 | 25 | 1006.5 |
| 20260831011813 | 97 | 271 | 22.0 | 31.0 | 0.00 | 0.00 | 0.00 | 25 | 1006.4 |
| 20260831011345 | 98 | 263 | 22.0 | 30.0 | 0.00 | 0.00 | 0.00 | 24 | 1006.4 |
| 20260831010836 | 98 | 273 | 21.0 | 33.0 | 0.00 | 0.00 | 0.00 | 24 | 1006.5 |
| 20260831010325 | 99 | 248 | 24.0 | 33.0 | 0.00 | 0.00 | 0.00 | 23 | 1006.4 |
| 20260831005814 | 99 | 261 | 21.0 | 31.0 | 0.00 | 0.00 | 0.00 | 22 | 1006.5 |
| 20260831005325 | 100 | 252 | 23.0 | 28.0 | 0.00 | 0.00 | 0.00 | 22 | 1006.4 |
| 20260831004836 | 100 | 264 | 19.0 | 26.0 | 0.00 | 0.00 | 0.00 | 21 | 1006.5 |
| 20260831004323 | 101 | 288 | 19.0 | 26.0 | 0.00 | 0.00 | 0.00 | 20 | 1006.5 |
| 20260831003819 | 101 | 250 | 19.0 | 29.0 | 0.00 | 0.00 | 0.00 | 20 | 1006.5 |
| 20260831003332 | 101 | 267 | 23.0 | 29.0 | 0.00 | 0.00 | 0.00 | 20 | 1006.4 |
| 20260831002825 | 102 | 266 | 21.0 | 26.0 | 0.00 | 0.00 | 0.00 | 18 | 1006.4 |
| 20260831002317 | 101 | 263 | 20.0 | 27.0 | 0.00 | 0.00 | 0.00 | 18 | 1006.4 |
| 20260831001830 | 102 | 261 | 24.0 | 27.0 | 0.00 | 0.00 | 0.00 | 18 | 1006.4 |
| 20260831001342 | 102 | 268 | 16.0 | 29.0 | 0.00 | 0.00 | 0.00 | 17 | 1006.4 |
| 20260831000853 | 103 | 263 | 22.0 | 29.0 | 0.00 | 0.00 | 0.00 | 17 | 1006.3 |
| 20260831000344 | 103 | 268 | 18.0 | 26.0 | 0.00 | 0.00 | 0.00 | 17 | 1006.4 |
| 20260830235813 | 103 | 273 | 18.0 | 26.0 | 0.00 | 0.00 | 0.00 | 17 | 1006.4 |
| 20260830235325 | 103 | 244 | 19.0 | 27.0 | 0.00 | 0.00 | 0.00 | 17 | 1006.4 |
| 20260830234822 | 103 | 265 | 17.0 | 27.0 | 0.00 | 0.00 | 0.00 | 17 | 1006.4 |
| 20260830234313 | 103 | 250 | 18.0 | 28.0 | 0.00 | 0.00 | 0.00 | 17 | 1006.5 |
| 20260830233827 | 103 | 249 | 16.0 | 28.0 | 0.00 | 0.00 | 0.00 | 17 | 1006.4 |
| 20260830233319 | 103 | 265 | 12.0 | 18.0 | 0.00 | 0.00 | 0.00 | 17 | 1006.6 |
| 20260830232832 | 103 | 267 | 9.0 | 22.0 | 0.00 | 0.00 | 0.00 | 17 | 1006.5 |
| 20260830232323 | 104 | 252 | 17.0 | 23.0 | 0.00 | 0.00 | 0.00 | 16 | 1006.5 |
| 20260830231816 | 104 | 248 | 16.0 | 23.0 | 0.00 | 0.00 | 0.00 | 16 | 1006.6 |
| 20260830231326 | 104 | 265 | 11.0 | 17.0 | 0.00 | 0.00 | 0.00 | 16 | 1006.6 |
| 20260830230841 | 104 | 309 | 11.0 | 18.0 | 0.00 | 0.00 | 0.00 | 16 | 1006.6 |
| 20260830230330 | 104 | 234 | 6.0 | 20.0 | 0.00 | 0.00 | 0.00 | 17 | 1006.6 |
| 20260830225817 | 104 | 213 | 10.0 | 20.0 | 0.00 | 0.00 | 0.00 | 17 | 1006.8 |
| 20260830225328 | 104 | 273 | 4.0 | 18.0 | 0.00 | 0.00 | 0.00 | 17 | 1006.7 |
| 20260830224840 | 104 | 265 | 12.0 | 16.0 | 0.00 | 0.00 | 0.00 | 17 | 1006.8 |
| 20260830224330 | 104 | 306 | 5.0 | 10.0 | 0.00 | 0.00 | 0.00 | 18 | 1006.9 |
| 20260830223842 | 104 | 248 | 7.0 | 10.0 | 0.00 | 0.00 | 0.00 | 18 | 1007.0 |
| 20260830223332 | 104 | 164 | 4.0 | 12.0 | 0.00 | 0.00 | 0.00 | 18 | 1007.0 |
| 20260830222826 | 104 | 207 | 8.0 | 12.0 | 0.00 | 0.00 | 0.00 | 19 | 1007.0 |
| 20260830222316 | 104 | 141 | 4.0 | 9.0 | 0.00 | 0.00 | 0.00 | 18 | 1007.2 |
| 20260830221828 | 104 | 17 | 3.0 | 8.0 | 0.00 | 0.00 | 0.00 | 18 | 1007.3 |
| 20260830221324 | 104 | 232 | 4.0 | 11.0 | 0.00 | 0.00 | 0.00 | 18 | 1007.4 |
| 20260830220817 | 104 | 161 | 6.0 | 11.0 | 0.00 | 0.00 | 0.00 | 19 | 1007.5 |
| 20260830220329 | 104 | 202 | 8.0 | 11.0 | 0.00 | 0.00 | 0.00 | 19 | 1007.5 |
| 20260830215837 | 104 | 217 | 4.0 | 7.0 | 0.00 | 0.00 | 0.00 | 19 | 1007.6 |
| 20260830215327 | 103 | 106 | 4.0 | 11.0 | 0.00 | 0.00 | 0.00 | 20 | 1007.7 |
| 20260830214819 | 104 | 100 | 5.0 | 10.0 | 0.00 | 0.00 | 0.00 | 19 | 1007.8 |
| 20260830214330 | 104 | 107 | 3.0 | 10.0 | 0.00 | 0.00 | 0.00 | 19 | 1007.9 |
| 20260830213823 | 104 | 200 | 5.0 | 10.0 | 0.00 | 0.00 | 0.00 | 19 | 1008.1 |
| 20260830213318 | 104 | 168 | 3.0 | 9.0 | 0.00 | 0.00 | 0.00 | 19 | 1008.2 |
| 20260830212831 | 104 | 128 | 5.0 | 8.0 | 0.00 | 0.00 | 0.00 | 19 | 1008.3 |
| 20260830212322 | 103 | 132 | 4.0 | 7.0 | 0.00 | 0.00 | 0.00 | 19 | 1008.4 |
| 20260830211834 | 103 | 152 | 4.0 | 10.0 | 0.00 | 0.00 | 0.00 | 20 | 1008.5 |
| 20260830211344 | 102 | 222 | 6.0 | 11.0 | 0.00 | 0.00 | 0.00 | 20 | 1008.5 |
| 20260830210817 | 102 | 242 | 3.0 | 12.0 | 0.00 | 0.00 | 0.00 | 20 | 1008.6 |
| 20260830210327 | 102 | 184 | 8.0 | 12.0 | 0.00 | 0.00 | 0.00 | 20 | 1008.7 |
| 20260830205816 | 102 | 182 | 7.0 | 12.0 | 0.00 | 0.00 | 0.00 | 21 | 1008.8 |
| 20260830205326 | 101 | 195 | 6.0 | 12.0 | 0.00 | 0.00 | 0.00 | 21 | 1008.8 |
| 20260830204838 | 102 | 80 | 5.0 | 12.0 | 0.00 | 0.00 | 0.00 | 21 | 1008.9 |
| 20260830204328 | 102 | 114 | 6.0 | 9.0 | 0.00 | 0.00 | 0.00 | 21 | 1009.0 |
| 20260830203825 | 102 | 186 | 5.0 | 9.0 | 0.00 | 0.00 | 0.00 | 21 | 1009.0 |
| 20260830203315 | 102 | 90 | 3.0 | 8.0 | 0.00 | 0.00 | 0.00 | 21 | 1009.1 |
| 20260830202829 | 102 | 332 | 2.0 | 14.0 | 0.00 | 0.00 | 0.00 | 21 | 1009.1 |
| 20260830202320 | 103 | 167 | 9.0 | 14.0 | 0.00 | 0.00 | 0.00 | 21 | 1009.2 |
| 20260830201813 | 102 | 175 | 5.0 | 11.0 | 0.00 | 0.00 | 0.00 | 21 | 1009.2 |
| 20260830201323 | 101 | 148 | 3.0 | 13.0 | 0.00 | 0.00 | 0.00 | 21 | 1009.3 |
| 20260830200814 | 101 | 133 | 9.0 | 13.0 | 0.00 | 0.00 | 0.00 | 21 | 1009.3 |
| 20260830200325 | 100 | 131 | 5.0 | 13.0 | 0.00 | 0.00 | 0.00 | 21 | 1009.3 |
| 20260830195813 | 101 | 107 | 4.0 | 13.0 | 0.00 | 0.00 | 0.00 | 21 | 1009.4 |
| 20260830195344 | 100 | 157 | 6.0 | 12.0 | 0.00 | 0.00 | 0.00 | 21 | 1009.5 |
| 20260830194835 | 100 | 70 | 6.0 | 12.0 | 0.00 | 0.00 | 0.00 | 21 | 1009.4 |
| 20260830194328 | 101 | 126 | 8.0 | 15.0 | 0.00 | 0.00 | 0.00 | 20 | 1009.5 |
| 20260830193820 | 101 | 117 | 8.0 | 15.0 | 0.00 | 0.00 | 0.00 | 20 | 1009.6 |
| 20260830193330 | 100 | 136 | 3.0 | 10.0 | 0.00 | 0.00 | 0.00 | 20 | 1009.7 |
| 20260830192821 | 101 | 122 | 4.0 | 13.0 | 0.00 | 0.00 | 0.00 | 20 | 1009.7 |
| 20260830192330 | 101 | 136 | 7.0 | 13.0 | 0.00 | 0.00 | 0.00 | 20 | 1009.9 |
| 20260830191821 | 101 | 137 | 7.0 | 13.0 | 0.00 | 0.00 | 0.00 | 19 | 1009.8 |
| 20260830191332 | 101 | 152 | 6.0 | 15.0 | 0.00 | 0.00 | 0.00 | 19 | 1009.8 |
| 20260830190824 | 101 | 124 | 7.0 | 15.0 | 0.00 | 0.00 | 0.00 | 20 | 1009.9 |
| 20260830190335 | 100 | 161 | 9.0 | 15.0 | 0.00 | 0.00 | 0.00 | 20 | 1009.9 |
| 20260830185826 | 100 | 180 | 8.0 | 12.0 | 0.00 | 0.00 | 0.00 | 21 | 1010.0 |
| 20260830185317 | 100 | 166 | 8.0 | 14.0 | 0.00 | 0.00 | 0.00 | 21 | 1010.1 |
| 20260830184829 | 100 | 135 | 9.0 | 14.0 | 0.00 | 0.00 | 0.00 | 21 | 1010.1 |
| 20260830184319 | 100 | 138 | 5.0 | 11.0 | 0.00 | 0.00 | 0.00 | 21 | 1010.1 |
| 20260830183832 | 100 | 151 | 6.0 | 11.0 | 0.00 | 0.00 | 0.00 | 21 | 1010.3 |
| 20260830183321 | 100 | 141 | 7.0 | 12.0 | 0.00 | 0.00 | 0.00 | 21 | 1010.3 |
| 20260830182813 | 100 | 154 | 8.0 | 11.0 | 0.00 | 0.00 | 0.00 | 21 | 1010.3 |
| 20260830182323 | 100 | 134 | 9.0 | 15.0 | 0.00 | 0.00 | 0.00 | 22 | 1010.4 |
| 20260830181819 | 100 | 136 | 6.0 | 12.0 | 0.00 | 0.00 | 0.00 | 22 | 1010.3 |
| 20260830181328 | 100 | 171 | 6.0 | 12.0 | 0.00 | 0.00 | 0.00 | 21 | 1010.4 |
| 20260830180820 | 100 | 111 | 4.0 | 12.0 | 0.00 | 0.00 | 0.00 | 20 | 1010.4 |
| 20260830180331 | 100 | 170 | 7.0 | 12.0 | 0.00 | 0.00 | 0.00 | 21 | 1010.4 |
| 20260830175820 | 99 | 180 | 6.0 | 8.0 | 0.00 | 0.00 | 0.00 | 21 | 1010.3 |
| 20260830175331 | 98 | 355 | 2.0 | 4.0 | 0.00 | 0.00 | 0.00 | 21 | 1010.3 |
| 20260830174844 | 98 | 304 | 3.0 | 4.0 | 0.00 | 0.00 | 0.00 | 21 | 1010.3 |
| 20260830174314 | 98 | 5 | 1.0 | 6.0 | 0.00 | 0.00 | 0.00 | 21 | 1010.3 |
| 20260830173827 | 98 | 173 | 2.0 | 6.0 | 0.00 | 0.00 | 0.00 | 21 | 1010.4 |
| 20260830173338 | 97 | 89 | 3.0 | 7.0 | 0.00 | 0.00 | 0.00 | 21 | 1010.3 |
| 20260830172850 | 97 | 178 | 3.0 | 7.0 | 0.00 | 0.00 | 0.00 | 22 | 1010.3 |
| 20260830172323 | 96 | 192 | 5.0 | 7.0 | 0.00 | 0.00 | 0.00 | 22 | 1010.4 |
| 20260830171816 | 96 | 214 | 5.0 | 10.0 | 0.00 | 0.00 | 0.00 | 23 | 1010.3 |
| 20260830171327 | 95 | 229 | 5.0 | 10.0 | 0.00 | 0.00 | 0.00 | 23 | 1010.3 |
| 20260830170820 | 95 | 263 | 3.0 | 10.0 | 0.00 | 0.00 | 0.00 | 24 | 1010.3 |
| 20260830170330 | 95 | 293 | 7.0 | 12.0 | 0.00 | 0.00 | 0.00 | 24 | 1010.3 |
| 20260830165818 | 95 | 300 | 8.0 | 12.0 | 0.00 | 0.00 | 0.00 | 24 | 1010.1 |
| 20260830165329 | 94 | 329 | 9.0 | 11.0 | 0.00 | 0.00 | 0.00 | 24 | 1010.1 |
| 20260830164821 | 94 | 314 | 9.0 | 13.0 | 0.00 | 0.00 | 0.00 | 24 | 1010.0 |
| 20260830164331 | 94 | 313 | 9.0 | 14.0 | 0.00 | 0.00 | 0.00 | 25 | 1010.1 |
| 20260830163828 | 94 | 304 | 10.0 | 14.0 | 0.00 | 0.00 | 0.00 | 25 | 1010.1 |
| 20260830163318 | 93 | 286 | 10.0 | 15.0 | 0.00 | 0.00 | 0.00 | 25 | 1010.0 |
| 20260830162831 | 93 | 284 | 11.0 | 15.0 | 0.00 | 0.00 | 0.00 | 25 | 1010.0 |
| 20260830162321 | 93 | 280 | 10.0 | 14.0 | 0.00 | 0.00 | 0.00 | 25 | 1010.0 |
| 20260830161814 | 93 | 286 | 9.0 | 12.0 | 0.00 | 0.00 | 0.00 | 26 | 1010.0 |
| 20260830161325 | 92 | 298 | 9.0 | 12.0 | 0.00 | 0.00 | 0.00 | 26 | 1010.0 |
| 20260830160818 | 92 | 292 | 9.0 | 12.0 | 0.00 | 0.00 | 0.00 | 26 | 1010.0 |
| 20260830160349 | 92 | 271 | 10.0 | 12.0 | 0.00 | 0.00 | 0.00 | 27 | 1010.0 |
| 20260830155817 | 91 | 296 | 10.0 | 13.0 | 0.00 | 0.00 | 0.00 | 27 | 1010.0 |
| 20260830155330 | 91 | 276 | 10.0 | 14.0 | 0.00 | 0.00 | 0.00 | 27 | 1010.0 |
| 20260830154822 | 91 | 262 | 11.0 | 14.0 | 0.00 | 0.00 | 0.00 | 27 | 1010.1 |
| 20260830154332 | 91 | 263 | 11.0 | 14.0 | 0.00 | 0.00 | 0.00 | 27 | 1010.1 |
| 20260830153822 | 91 | 267 | 11.0 | 14.0 | 0.00 | 0.00 | 0.00 | 27 | 1010.0 |
| 20260830153332 | 91 | 275 | 11.0 | 14.0 | 0.00 | 0.00 | 0.00 | 28 | 1010.1 |
| 20260830152844 | 90 | 292 | 11.0 | 14.0 | 0.00 | 0.00 | 0.00 | 28 | 1010.1 |
| 20260830152314 | 90 | 257 | 9.0 | 15.0 | 0.00 | 0.00 | 0.00 | 28 | 1010.1 |